Home   Weather   Alpena   Past weeks

Flag for USA Past Weather in Alpena, Michigan, USA — Yesterday and Last 2 Weeks

Now
39 °F

Mostly cloudy.


Feels Like: 33 °F
Forecast: 37 / 47 °F
Wind: 8 mph from Northwest

Location: Alpena County Regional Airport

Current Time: Apr 29, 2017 at 5:47:56 am

Latest Report: Apr 29, 2017 at 4:54 am


Visibility: 10 mi

Pressure: 30.11 "Hg

Humidity: 70%

Dew Point: 30 °F

Location of AlpenaLocation

Past Weather in Alpena — Graph

°F

Alpena Temperature Yesterday

Maximum temperature yesterday: 61 °F (at 3:54 pm)
Minimum temperature yesterday: 41 °F (at 9:54 pm)
Average temperature yesterday: 46 °F

High & Low Weather Summary for the Past Weeks

 TemperatureHumidityPressure
High77 °F (Apr 15, 6:54 pm)100% (Apr 15, 10:33 am)30.46 "Hg (Apr 15, 10:33 am)
Low26 °F (Apr 14, 5:54 am)26% (Apr 22, 2:54 pm)29.35 "Hg (Apr 27, 12:54 pm)
Average47 °F77%29.96 "Hg
* Reported Apr 14 3:54 am — Apr 29 3:54 am, Alpena, Weather by CustomWeather, © 2017

Note: Actual official high and low records may vary slightly from our data, if they occured in-between our weather recording intervals... More about our weather records

Advertising

Alpena Weather History for the Previous 24 Hours

Scroll right to see more
 ConditionsComfort  
Time TempWeatherWind HumidityBarometerVisibility
3:54 am
Sat, Apr 29
39 °FOvercast.6 mph73%30.08 "Hg10 mi
2:54 am39 °FOvercast.7 mph76%30.07 "Hg10 mi
1:54 am39 °FOvercast.9 mph76%30.05 "Hg10 mi
12:54 am41 °FPassing clouds.10 mph67%30.04 "Hg10 mi
11:54 pm
Fri, Apr 28
42 °FMostly cloudy.7 mph68%30.05 "Hg10 mi
10:54 pm41 °FMostly cloudy.5 mph76%30.04 "Hg10 mi
9:54 pm41 °FPassing clouds.10 mph74%29.99 "Hg10 mi
8:54 pm42 °FPassing clouds.5 mph73%29.98 "Hg10 mi
7:54 pm43 °FSunny.9 mph74%29.95 "Hg10 mi
6:54 pm46 °FSunny.10 mph66%29.93 "Hg10 mi
5:54 pm49 °FSunny.12 mph61%29.91 "Hg10 mi
4:54 pm49 °FSunny.13 mph64%29.93 "Hg10 mi
3:54 pm61 °FSunny.10 mph35%29.90 "Hg10 mi
2:54 pm59 °FSunny.8 mph41%29.89 "Hg10 mi
1:54 pm55 °FSunny.10 mph47%29.90 "Hg10 mi
12:54 pm50 °FPartly sunny.12 mph54%29.91 "Hg10 mi
11:54 am47 °FPartly sunny.15 mph64%29.90 "Hg10 mi
11:13 am46 °FOvercast.12 mph66%29.87 "Hg10 mi
10:54 am46 °FOvercast.12 mph63%29.88 "Hg10 mi
10:04 am45 °FMore clouds than sun.9 mph71%29.86 "Hg10 mi
8:54 am43 °FOvercast.13 mph76%29.87 "Hg10 mi
8:05 am42 °FLight rain. Mostly cloudy.10 mph79%29.85 "Hg10 mi
7:54 am43 °FMostly cloudy.10 mph76%29.85 "Hg10 mi
6:54 am43 °FMore clouds than sun.13 mph76%29.84 "Hg10 mi
5:54 am43 °FMostly cloudy.13 mph79%29.81 "Hg10 mi
Weather by CustomWeather, © 2017

See weather overviewHow to use our weather pages